Terug naar catalogus

STARLINK-11527

ActiefCommunicatieVLEO
NORAD 62523·PAYLOAD·🇺🇸 United States

Gelanceerd Jan 8, 2025 vanaf Cape Canaveral Space Force Station

Loading…

Volgende Passages (komende 24 uur)

TLE

VersSource: CelesTrak SupGP

Epoch: Sep 14, 2026, 22:27 UTC

1 62523C 25004N   26257.93590278  .00034482  00000+0  26830-3 0  2573
2 62523  43.0007   9.7564 0001866 274.5960 131.0294 15.70777733    17

Volg STARLINK-11527 in realtime met AllMySat

Download on the App Store